Time,TemperatureF,DewpointF,PressureIn,WindDirection,WindDirectionDegrees,WindSpeedMPH,WindSpeedGustMPH,Humidity,HourlyPrecipIn,Conditions,Clouds,dailyrainin,SoftwareType,DateUTC
2013-11-06 00:02:00,55.6,53.9,30.03,NE,40,0.0,10.0,94,0.00,,,0.00,Wunderground v.1.15,2013-11-06 06:02:00,
2013-11-06 00:07:00,55.5,53.8,30.03,NE,40,0.0,10.0,94,0.00,,,0.00,Wunderground v.1.15,2013-11-06 06:07:00,
2013-11-06 00:12:00,55.4,53.7,30.03,NE,40,0.0,1.0,94,0.00,,,0.00,Wunderground v.1.15,2013-11-06 06:12:00,
2013-11-06 00:17:00,55.3,53.6,30.03,NE,40,1.0,1.0,94,0.00,,,0.00,Wunderground v.1.15,2013-11-06 06:17:00,
2013-11-06 00:22:00,55.2,53.5,30.03,NE,40,1.0,1.0,94,0.00,,,0.00,Wunderground v.1.15,2013-11-06 06:22:00,
2013-11-06 00:27:00,55.1,53.4,30.03,NE,40,1.0,1.0,94,0.00,,,0.00,Wunderground v.1.15,2013-11-06 06:27:00,
2013-11-06 00:32:00,55.1,53.4,30.03,NE,40,1.0,1.0,94,0.00,,,0.00,Wunderground v.1.15,2013-11-06 06:32:00,
2013-11-06 00:37:00,55.1,53.4,30.03,NE,40,0.0,2.0,94,0.00,,,0.00,Wunderground v.1.15,2013-11-06 06:37:00,
2013-11-06 00:42:00,55.1,53.4,30.03,NE,40,1.0,1.0,94,0.00,,,0.00,Wunderground v.1.15,2013-11-06 06:42:00,
2013-11-06 00:47:00,55.1,53.4,30.02,NE,40,1.0,2.0,94,0.00,,,0.00,Wunderground v.1.15,2013-11-06 06:47:00,
2013-11-06 00:52:00,55.1,53.4,30.02,NE,40,1.0,1.0,94,0.00,,,0.00,Wunderground v.1.15,2013-11-06 06:52:00,
2013-11-06 00:57:00,55.0,53.3,30.02,NE,40,1.0,2.0,94,0.00,,,0.00,Wunderground v.1.15,2013-11-06 06:57:00,
2013-11-06 01:02:00,54.9,53.2,30.02,NE,40,1.0,2.0,94,0.00,,,0.00,Wunderground v.1.15,2013-11-06 07:02:00,
2013-11-06 01:07:00,54.9,53.2,30.02,NE,40,1.0,2.0,94,0.00,,,0.00,Wunderground v.1.15,2013-11-06 07:07:00,
2013-11-06 01:12:00,54.8,53.1,30.02,NE,40,1.0,2.0,94,0.00,,,0.00,Wunderground v.1.15,2013-11-06 07:12:00,
2013-11-06 01:17:00,55.2,53.5,30.02,NE,40,1.0,2.0,94,0.00,,,0.00,Wunderground v.1.15,2013-11-06 07:17:00,
2013-11-06 01:22:00,55.3,53.6,30.02,NE,40,1.0,2.0,94,0.00,,,0.00,Wunderground v.1.15,2013-11-06 07:22:00,
2013-11-06 01:27:00,55.4,53.7,30.02,NE,40,1.0,2.0,94,0.00,,,0.00,Wunderground v.1.15,2013-11-06 07:27:00,
2013-11-06 01:32:00,55.5,53.8,30.02,NNE,32,1.0,2.0,94,0.00,,,0.00,Wunderground v.1.15,2013-11-06 07:32:00,
2013-11-06 01:37:00,55.6,54.2,30.02,NNE,32,1.0,2.0,95,0.00,,,0.00,Wunderground v.1.15,2013-11-06 07:37:00,
2013-11-06 01:42:00,55.8,54.4,30.02,NNE,32,1.0,2.0,95,0.00,,,0.00,Wunderground v.1.15,2013-11-06 07:42:00,
2013-11-06 01:47:00,56.0,54.6,30.01,NNE,32,1.0,2.0,95,0.00,,,0.00,Wunderground v.1.15,2013-11-06 07:47:00,
2013-11-06 01:52:00,56.0,54.3,30.01,NNE,32,1.0,2.0,94,0.00,,,0.00,Wunderground v.1.15,2013-11-06 07:52:00,
2013-11-06 01:57:00,55.9,54.2,30.01,NNE,32,1.0,2.0,94,0.00,,,0.00,Wunderground v.1.15,2013-11-06 07:57:00,
2013-11-06 02:02:00,56.0,54.3,30.00,NNE,32,1.0,2.0,94,0.00,,,0.00,Wunderground v.1.15,2013-11-06 08:02:00,
2013-11-06 02:07:00,56.0,54.3,30.00,NNE,32,1.0,2.0,94,0.00,,,0.00,Wunderground v.1.15,2013-11-06 08:07:00,
2013-11-06 02:12:00,56.0,54.3,30.00,NNE,32,1.0,1.0,94,0.00,,,0.00,Wunderground v.1.15,2013-11-06 08:12:00,
2013-11-06 02:17:00,55.9,54.2,30.00,NNE,32,1.0,2.0,94,0.00,,,0.00,Wunderground v.1.15,2013-11-06 08:17:00,
2013-11-06 02:22:00,55.8,54.1,30.00,NNE,32,1.0,2.0,94,0.00,,,0.00,Wunderground v.1.15,2013-11-06 08:22:00,
2013-11-06 02:27:00,55.6,53.9,30.00,NNE,32,1.0,2.0,94,0.00,,,0.00,Wunderground v.1.15,2013-11-06 08:27:00,
2013-11-06 02:32:00,55.6,53.9,30.00,NNE,32,1.0,2.0,94,0.00,,,0.00,Wunderground v.1.15,2013-11-06 08:32:00,
2013-11-06 02:37:00,55.6,53.9,30.00,NNE,32,1.0,2.0,94,0.00,,,0.00,Wunderground v.1.15,2013-11-06 08:37:00,
2013-11-06 02:42:00,55.7,54.0,30.00,NNE,32,1.0,2.0,94,0.00,,,0.00,Wunderground v.1.15,2013-11-06 08:42:00,
2013-11-06 02:47:00,55.7,54.0,30.00,NNE,32,1.0,2.0,94,0.00,,,0.00,Wunderground v.1.15,2013-11-06 08:47:00,
2013-11-06 02:57:00,55.7,54.0,30.00,NNE,32,1.0,2.0,94,0.00,,,0.00,Wunderground v.1.15,2013-11-06 08:57:00,
2013-11-06 03:02:00,55.6,53.9,30.00,NNE,32,1.0,2.0,94,0.00,,,0.00,Wunderground v.1.15,2013-11-06 09:02:00,
2013-11-06 03:07:00,55.5,53.8,30.00,NNE,32,1.0,2.0,94,0.00,,,0.00,Wunderground v.1.15,2013-11-06 09:07:00,
2013-11-06 03:12:00,55.5,53.8,30.00,NNE,32,1.0,2.0,94,0.00,,,0.00,Wunderground v.1.15,2013-11-06 09:12:00,
2013-11-06 03:17:00,55.6,53.9,30.01,NNE,32,1.0,2.0,94,0.00,,,0.00,Wunderground v.1.15,2013-11-06 09:17:00,
2013-11-06 03:22:00,55.6,53.9,30.01,NNE,32,1.0,1.0,94,0.00,,,0.00,Wunderground v.1.15,2013-11-06 09:22:00,
2013-11-06 03:27:00,55.6,53.9,30.01,NNE,32,1.0,2.0,94,0.00,,,0.00,Wunderground v.1.15,2013-11-06 09:27:00,
2013-11-06 03:32:00,55.6,53.9,30.00,NNE,32,1.0,2.0,94,0.00,,,0.00,Wunderground v.1.15,2013-11-06 09:32:00,
2013-11-06 03:37:00,55.5,53.8,30.00,NNE,32,1.0,2.0,94,0.00,,,0.00,Wunderground v.1.15,2013-11-06 09:37:00,
2013-11-06 03:42:00,55.3,53.6,30.00,NNE,32,1.0,2.0,94,0.00,,,0.00,Wunderground v.1.15,2013-11-06 09:42:00,
2013-11-06 03:47:00,55.2,53.5,30.00,NNE,28,1.0,2.0,94,0.00,,,0.00,Wunderground v.1.15,2013-11-06 09:47:00,
2013-11-06 03:52:00,55.3,53.6,30.00,NE,49,1.0,2.0,94,0.00,,,0.00,Wunderground v.1.15,2013-11-06 09:52:00,
2013-11-06 03:57:00,55.4,53.7,30.00,NE,49,1.0,2.0,94,0.00,,,0.00,Wunderground v.1.15,2013-11-06 09:57:00,
2013-11-06 04:02:00,55.4,53.7,30.00,NE,38,1.0,2.0,94,0.00,,,0.00,Wunderground v.1.15,2013-11-06 10:02:00,
2013-11-06 04:07:00,55.4,53.7,30.00,NE,38,1.0,2.0,94,0.00,,,0.00,Wunderground v.1.15,2013-11-06 10:07:00,
2013-11-06 04:12:00,55.4,53.7,30.00,NE,38,1.0,1.0,94,0.00,,,0.00,Wunderground v.1.15,2013-11-06 10:12:00,
2013-11-06 04:17:00,55.4,53.7,30.00,NE,55,1.0,2.0,94,0.00,,,0.00,Wunderground v.1.15,2013-11-06 10:17:00,
2013-11-06 04:22:00,55.4,53.7,30.00,ENE,57,1.0,1.0,94,0.00,,,0.00,Wunderground v.1.15,2013-11-06 10:22:00,
2013-11-06 04:27:00,55.3,53.6,30.00,NE,51,1.0,2.0,94,0.00,,,0.00,Wunderground v.1.15,2013-11-06 10:27:00,
2013-11-06 04:32:00,55.2,53.5,30.00,NE,51,1.0,2.0,94,0.00,,,0.00,Wunderground v.1.15,2013-11-06 10:32:00,
2013-11-06 04:37:00,55.2,53.5,30.00,NE,45,1.0,2.0,94,0.00,,,0.00,Wunderground v.1.15,2013-11-06 10:37:00,
2013-11-06 04:42:00,55.2,53.5,30.00,NE,44,1.0,2.0,94,0.00,,,0.00,Wunderground v.1.15,2013-11-06 10:42:00,
2013-11-06 04:47:00,55.2,53.5,30.00,NE,44,1.0,2.0,94,0.00,,,0.00,Wunderground v.1.15,2013-11-06 10:47:00,
2013-11-06 04:52:00,55.2,53.5,30.00,NE,44,1.0,1.0,94,0.00,,,0.00,Wunderground v.1.15,2013-11-06 10:52:00,
2013-11-06 04:57:00,55.2,53.5,30.00,NE,44,1.0,2.0,94,0.00,,,0.00,Wunderground v.1.15,2013-11-06 10:57:00,
2013-11-06 05:07:00,55.1,53.1,30.00,NE,44,1.0,2.0,93,0.00,,,0.00,Wunderground v.1.15,2013-11-06 11:07:00,
2013-11-06 05:12:00,55.0,53.0,30.00,NE,44,1.0,1.0,93,0.00,,,0.00,Wunderground v.1.15,2013-11-06 11:12:00,
2013-11-06 05:17:00,55.0,53.0,30.00,NE,44,0.0,1.0,93,0.00,,,0.00,Wunderground v.1.15,2013-11-06 11:17:00,
2013-11-06 05:22:00,54.9,52.9,30.00,NE,40,0.0,0.0,93,0.00,,,0.00,Wunderground v.1.15,2013-11-06 11:22:00,
2013-11-06 05:27:00,54.9,53.2,30.00,NE,40,1.0,1.0,94,0.00,,,0.00,Wunderground v.1.15,2013-11-06 11:27:00,
2013-11-06 05:32:00,54.9,53.2,30.00,NE,40,1.0,1.0,94,0.00,,,0.00,Wunderground v.1.15,2013-11-06 11:32:00,
2013-11-06 05:37:00,54.9,53.2,30.00,NE,40,1.0,3.0,94,0.00,,,0.00,Wunderground v.1.15,2013-11-06 11:37:00,
2013-11-06 05:42:00,55.0,53.3,30.00,NE,40,1.0,3.0,94,0.00,,,0.00,Wunderground v.1.15,2013-11-06 11:42:00,
2013-11-06 05:47:00,54.9,53.2,30.01,NE,40,1.0,3.0,94,0.00,,,0.00,Wunderground v.1.15,2013-11-06 11:47:00,
2013-11-06 05:52:00,54.9,53.2,30.01,NE,40,1.0,3.0,94,0.00,,,0.00,Wunderground v.1.15,2013-11-06 11:52:00,
2013-11-06 05:57:00,54.8,53.1,30.01,NE,40,1.0,3.0,94,0.00,,,0.00,Wunderground v.1.15,2013-11-06 11:57:00,
2013-11-06 06:02:00,54.8,52.8,30.01,NE,40,1.0,1.0,93,0.00,,,0.00,Wunderground v.1.15,2013-11-06 12:02:00,
2013-11-06 06:07:00,54.7,53.0,30.01,NE,40,1.0,3.0,94,0.00,,,0.00,Wunderground v.1.15,2013-11-06 12:07:00,
2013-11-06 06:12:00,54.7,53.0,30.01,NE,40,1.0,3.0,94,0.00,,,0.00,Wunderground v.1.15,2013-11-06 12:12:00,
2013-11-06 06:17:00,54.6,52.9,30.01,NE,45,1.0,3.0,94,0.00,,,0.00,Wunderground v.1.15,2013-11-06 12:17:00,
2013-11-06 06:22:00,54.6,52.9,30.01,NE,45,1.0,1.0,94,0.00,,,0.00,Wunderground v.1.15,2013-11-06 12:22:00,
2013-11-06 06:27:00,54.6,52.6,30.01,NE,45,1.0,3.0,93,0.00,,,0.00,Wunderground v.1.15,2013-11-06 12:27:00,
2013-11-06 06:32:00,54.6,52.6,30.01,NE,45,0.0,3.0,93,0.00,,,0.00,Wunderground v.1.15,2013-11-06 12:32:00,
2013-11-06 06:37:00,54.6,52.9,30.01,NE,45,1.0,3.0,94,0.00,,,0.00,Wunderground v.1.15,2013-11-06 12:37:00,
2013-11-06 06:42:00,54.7,53.0,30.01,NE,51,1.0,3.0,94,0.00,,,0.00,Wunderground v.1.15,2013-11-06 12:42:00,
2013-11-06 06:47:00,54.8,53.1,30.01,NE,44,1.0,3.0,94,0.00,,,0.00,Wunderground v.1.15,2013-11-06 12:47:00,
2013-11-06 06:52:00,55.0,53.3,30.01,NE,47,1.0,3.0,94,0.00,,,0.00,Wunderground v.1.15,2013-11-06 12:52:00,
2013-11-06 06:57:00,55.2,53.5,30.01,NE,43,2.0,3.0,94,0.00,,,0.00,Wunderground v.1.15,2013-11-06 12:57:00,
2013-11-06 07:02:00,55.4,53.7,30.01,ENE,61,2.0,2.0,94,0.00,,,0.00,Wunderground v.1.15,2013-11-06 13:02:00,
2013-11-06 07:07:00,55.6,53.9,30.01,NE,47,1.0,3.0,94,0.00,,,0.00,Wunderground v.1.15,2013-11-06 13:07:00,
2013-11-06 07:12:00,55.7,54.0,30.01,NE,49,1.0,1.0,94,0.00,,,0.00,Wunderground v.1.15,2013-11-06 13:12:00,
2013-11-06 07:17:00,56.0,54.3,30.01,NE,49,1.0,3.0,94,0.00,,,0.00,Wunderground v.1.15,2013-11-06 13:17:00,
2013-11-06 07:22:00,56.3,54.6,30.01,NE,48,1.0,3.0,94,0.00,,,0.00,Wunderground v.1.15,2013-11-06 13:22:00,
2013-11-06 07:27:00,56.6,54.6,30.01,ESE,123,1.0,3.0,93,0.00,,,0.00,Wunderground v.1.15,2013-11-06 13:27:00,
2013-11-06 07:32:00,56.9,54.9,30.01,SSW,202,1.0,1.0,93,0.00,,,0.00,Wunderground v.1.15,2013-11-06 13:32:00,
2013-11-06 07:37:00,57.3,55.3,30.01,South,190,1.0,3.0,93,0.00,,,0.00,Wunderground v.1.15,2013-11-06 13:37:00,
2013-11-06 07:42:00,57.8,55.8,30.01,NNW,348,1.0,1.0,93,0.00,,,0.00,Wunderground v.1.15,2013-11-06 13:42:00,
2013-11-06 07:47:00,58.3,56.3,30.01,ENE,77,1.0,3.0,93,0.00,,,0.00,Wunderground v.1.15,2013-11-06 13:47:00,
2013-11-06 07:52:00,58.9,56.6,30.01,ENE,60,1.0,3.0,92,0.00,,,0.00,Wunderground v.1.15,2013-11-06 13:52:00,
2013-11-06 07:55:00,59.1,56.8,30.01,NE,37,2.0,5.0,92,0.00,,,0.00,Wunderground v.1.15,2013-11-06 13:55:00,
2013-11-06 08:00:00,59.6,57.0,30.01,ENE,73,2.0,3.0,91,0.00,,,0.00,Wunderground v.1.15,2013-11-06 14:00:00,
2013-11-06 08:05:00,60.0,57.4,30.01,NE,42,2.0,4.0,91,0.00,,,0.00,Wunderground v.1.15,2013-11-06 14:05:00,
2013-11-06 08:10:00,60.5,57.6,30.01,SE,146,1.0,3.0,90,0.00,,,0.00,Wunderground v.1.15,2013-11-06 14:10:00,
2013-11-06 08:15:00,61.1,58.1,30.02,East,98,2.0,3.0,90,0.00,,,0.00,Wunderground v.1.15,2013-11-06 14:15:00,
2013-11-06 08:20:00,61.5,58.2,30.02,South,174,2.0,3.0,89,0.00,,,0.00,Wunderground v.1.15,2013-11-06 14:20:00,
2013-11-06 08:25:00,61.9,58.6,30.02,NE,51,2.0,3.0,89,0.00,,,0.00,Wunderground v.1.15,2013-11-06 14:25:00,
2013-11-06 08:30:00,62.3,59.0,30.02,SE,131,1.0,3.0,89,0.00,,,0.00,Wunderground v.1.15,2013-11-06 14:30:00,
2013-11-06 08:35:00,62.6,59.0,30.02,WSW,237,1.0,3.0,88,0.00,,,0.00,Wunderground v.1.15,2013-11-06 14:35:00,
2013-11-06 08:40:00,63.0,59.4,30.02,SSE,164,1.0,1.0,88,0.00,,,0.00,Wunderground v.1.15,2013-11-06 14:40:00,
2013-11-06 08:49:00,64.0,60.4,30.02,SSE,150,2.0,2.0,88,0.00,,,0.00,Wunderground v.1.15,2013-11-06 14:49:00,
2013-11-06 08:55:00,64.6,61.0,30.02,SE,125,2.0,3.0,88,0.00,,,0.00,Wunderground v.1.15,2013-11-06 14:55:00,
2013-11-06 09:00:00,65.4,61.8,30.02,South,173,2.0,3.0,88,0.00,,,0.00,Wunderground v.1.15,2013-11-06 15:00:00,
2013-11-06 09:05:00,66.1,62.4,30.02,SSW,196,2.0,3.0,88,0.00,,,0.00,Wunderground v.1.15,2013-11-06 15:05:00,
2013-11-06 09:10:00,66.9,62.9,30.02,SSW,192,2.0,2.0,87,0.00,,,0.00,Wunderground v.1.15,2013-11-06 15:10:00,
2013-11-06 09:15:00,67.7,63.4,30.02,SE,128,3.0,3.0,86,0.00,,,0.00,Wunderground v.1.15,2013-11-06 15:15:00,
2013-11-06 09:20:00,68.5,63.8,30.02,ENE,67,3.0,3.0,85,0.00,,,0.00,Wunderground v.1.15,2013-11-06 15:20:00,
2013-11-06 09:25:00,69.3,64.3,30.02,South,184,2.0,4.0,84,0.00,,,0.00,Wunderground v.1.15,2013-11-06 15:25:00,
2013-11-06 09:30:00,70.0,64.6,30.02,South,171,2.0,3.0,83,0.00,,,0.00,Wunderground v.1.15,2013-11-06 15:30:00,
2013-11-06 09:35:00,70.7,64.9,30.02,SSW,203,2.0,3.0,82,0.00,,,0.00,Wunderground v.1.15,2013-11-06 15:35:00,
2013-11-06 09:40:00,71.3,65.2,30.02,SSE,150,3.0,4.0,81,0.00,,,0.00,Wunderground v.1.15,2013-11-06 15:40:00,
2013-11-06 09:44:00,71.9,65.4,30.02,SW,234,3.0,4.0,80,0.00,,,0.00,Wunderground v.1.15,2013-11-06 15:44:00,
2013-11-06 09:50:00,72.6,66.1,30.02,ESE,114,3.0,3.0,80,0.00,,,0.00,Wunderground v.1.15,2013-11-06 15:50:00,
2013-11-06 09:55:00,73.4,66.5,30.02,SSE,156,2.0,3.0,79,0.00,,,0.00,Wunderground v.1.15,2013-11-06 15:55:00,
2013-11-06 09:59:00,74.0,66.7,30.02,SSE,156,2.0,4.0,78,0.00,,,0.00,Wunderground v.1.15,2013-11-06 15:59:00,
2013-11-06 10:04:00,74.5,66.8,30.02,SSE,160,3.0,4.0,77,0.00,,,0.00,Wunderground v.1.15,2013-11-06 16:04:00,
2013-11-06 10:09:00,74.9,67.2,30.02,SSE,155,3.0,5.0,77,0.00,,,0.00,Wunderground v.1.15,2013-11-06 16:09:00,
2013-11-06 10:14:00,75.3,67.6,30.02,South,190,3.0,5.0,77,0.00,,,0.00,Wunderground v.1.15,2013-11-06 16:14:00,
2013-11-06 10:19:00,75.7,67.2,30.02,West,265,3.0,3.0,75,0.00,,,0.00,Wunderground v.1.15,2013-11-06 16:19:00,
2013-11-06 10:24:00,76.1,67.6,30.02,ESE,123,4.0,4.0,75,0.00,,,0.00,Wunderground v.1.15,2013-11-06 16:24:00,
2013-11-06 10:29:00,76.6,67.7,30.01,SSW,206,3.0,3.0,74,0.00,,,0.00,Wunderground v.1.15,2013-11-06 16:29:00,
2013-11-06 10:34:00,77.0,68.1,30.01,SSW,192,3.0,3.0,74,0.00,,,0.00,Wunderground v.1.15,2013-11-06 16:34:00,
2013-11-06 10:39:00,77.2,67.9,30.01,NE,55,3.0,5.0,73,0.00,,,0.00,Wunderground v.1.15,2013-11-06 16:39:00,
2013-11-06 10:44:00,77.1,68.2,30.01,WSW,253,4.0,5.0,74,0.00,,,0.00,Wunderground v.1.15,2013-11-06 16:44:00,
2013-11-06 10:49:00,77.3,68.0,30.01,WSW,242,3.0,6.0,73,0.00,,,0.00,Wunderground v.1.15,2013-11-06 16:49:00,
2013-11-06 10:54:00,77.1,67.8,30.01,SSW,198,4.0,6.0,73,0.00,,,0.00,Wunderground v.1.15,2013-11-06 16:54:00,
2013-11-06 10:59:00,77.4,68.1,30.00,SSE,157,4.0,4.0,73,0.00,,,0.00,Wunderground v.1.15,2013-11-06 16:59:00,
2013-11-06 11:04:00,77.8,68.0,30.00,West,263,3.0,4.0,72,0.00,,,0.00,Wunderground v.1.15,2013-11-06 17:04:00,
2013-11-06 11:09:00,77.7,67.5,30.00,WSW,237,4.0,4.0,71,0.00,,,0.00,Wunderground v.1.15,2013-11-06 17:09:00,
2013-11-06 11:14:00,77.7,68.0,30.00,SE,142,4.0,5.0,72,0.00,,,0.00,Wunderground v.1.15,2013-11-06 17:14:00,
2013-11-06 11:19:00,78.2,67.6,30.00,ESE,105,3.0,4.0,70,0.00,,,0.00,Wunderground v.1.15,2013-11-06 17:19:00,
2013-11-06 11:24:00,77.8,67.6,30.00,WSW,246,3.0,4.0,71,0.00,,,0.00,Wunderground v.1.15,2013-11-06 17:24:00,
2013-11-06 11:34:00,78.5,68.3,30.00,South,173,3.0,3.0,71,0.00,,,0.00,Wunderground v.1.15,2013-11-06 17:34:00,
2013-11-06 11:39:00,79.2,68.6,30.00,SSE,150,2.0,3.0,70,0.00,,,0.00,Wunderground v.1.15,2013-11-06 17:39:00,
2013-11-06 11:44:00,79.3,68.2,29.99,South,169,3.0,3.0,69,0.00,,,0.00,Wunderground v.1.15,2013-11-06 17:44:00,
2013-11-06 11:49:00,79.0,68.4,29.99,SSW,193,3.0,3.0,70,0.00,,,0.00,Wunderground v.1.15,2013-11-06 17:49:00,
2013-11-06 11:54:00,79.2,68.6,29.99,SSE,159,3.0,9.0,70,0.00,,,0.00,Wunderground v.1.15,2013-11-06 17:54:00,
2013-11-06 11:59:00,79.3,68.2,29.98,SW,233,4.0,4.0,69,0.00,,,0.00,Wunderground v.1.15,2013-11-06 17:59:00,
2013-11-06 12:04:00,78.8,68.2,29.98,SW,233,3.0,4.0,70,0.00,,,0.00,Wunderground v.1.15,2013-11-06 18:04:00,
2013-11-06 12:09:00,79.4,68.8,29.98,West,266,2.0,3.0,70,0.00,,,0.00,Wunderground v.1.15,2013-11-06 18:09:00,
2013-11-06 12:14:00,80.1,69.0,29.97,NE,53,2.0,3.0,69,0.00,,,0.00,Wunderground v.1.15,2013-11-06 18:14:00,
2013-11-06 12:19:00,80.6,69.1,29.97,South,173,3.0,3.0,68,0.00,,,0.00,Wunderground v.1.15,2013-11-06 18:19:00,
2013-11-06 12:24:00,80.9,68.9,29.97,WSW,246,3.0,3.0,67,0.00,,,0.00,Wunderground v.1.15,2013-11-06 18:24:00,
2013-11-06 12:29:00,80.3,68.3,29.97,SSE,153,4.0,4.0,67,0.00,,,0.00,Wunderground v.1.15,2013-11-06 18:29:00,
2013-11-06 12:39:00,79.3,68.2,29.97,SW,228,3.0,3.0,69,0.00,,,0.00,Wunderground v.1.15,2013-11-06 18:39:00,
2013-11-06 12:44:00,79.2,68.1,29.96,South,182,3.0,5.0,69,0.00,,,0.00,Wunderground v.1.15,2013-11-06 18:44:00,
2013-11-06 12:49:00,79.2,68.1,29.96,SSW,192,3.0,3.0,69,0.00,,,0.00,Wunderground v.1.15,2013-11-06 18:49:00,
2013-11-06 12:54:00,79.1,68.1,29.96,ESE,114,3.0,3.0,69,0.00,,,0.00,Wunderground v.1.15,2013-11-06 18:54:00,
2013-11-06 12:59:00,79.1,68.5,29.95,SSE,157,3.0,3.0,70,0.00,,,0.00,Wunderground v.1.15,2013-11-06 18:59:00,
2013-11-06 13:04:00,79.0,68.4,29.95,WSW,250,3.0,4.0,70,0.00,,,0.00,Wunderground v.1.15,2013-11-06 19:04:00,
2013-11-06 13:14:00,78.9,68.3,29.95,SW,235,3.0,3.0,70,0.00,,,0.00,Wunderground v.1.15,2013-11-06 19:14:00,
2013-11-06 13:19:00,78.9,68.7,29.95,WSW,242,3.0,3.0,71,0.00,,,0.00,Wunderground v.1.15,2013-11-06 19:19:00,
2013-11-06 13:29:00,79.2,68.6,29.95,South,180,2.0,3.0,70,0.00,,,0.00,Wunderground v.1.15,2013-11-06 19:29:00,
2013-11-06 13:34:00,79.0,68.4,29.95,SE,146,2.0,3.0,70,0.00,,,0.00,Wunderground v.1.15,2013-11-06 19:34:00,
2013-11-06 13:39:00,78.9,68.7,29.95,South,180,2.0,2.0,71,0.00,,,0.00,Wunderground v.1.15,2013-11-06 19:39:00,
2013-11-06 13:44:00,78.9,68.7,29.95,SE,144,2.0,3.0,71,0.00,,,0.00,Wunderground v.1.15,2013-11-06 19:44:00,
2013-11-06 13:49:00,78.7,68.5,29.95,SSW,192,2.0,2.0,71,0.00,,,0.00,Wunderground v.1.15,2013-11-06 19:49:00,
2013-11-06 13:54:00,78.6,68.4,29.95,SSW,198,2.0,3.0,71,0.00,,,0.00,Wunderground v.1.15,2013-11-06 19:54:00,
2013-11-06 13:59:00,78.6,68.4,29.95,SW,221,2.0,2.0,71,0.00,,,0.00,Wunderground v.1.15,2013-11-06 19:59:00,
2013-11-06 14:04:00,78.5,68.3,29.95,SSE,152,2.0,3.0,71,0.00,,,0.00,Wunderground v.1.15,2013-11-06 20:04:00,
2013-11-06 14:09:00,78.8,69.0,29.95,SSW,205,2.0,2.0,72,0.00,,,0.00,Wunderground v.1.15,2013-11-06 20:09:00,
2013-11-06 14:14:00,79.3,69.1,29.94,SE,137,2.0,4.0,71,0.00,,,0.00,Wunderground v.1.15,2013-11-06 20:14:00,
2013-11-06 14:19:00,79.3,68.7,29.94,SE,135,2.0,2.0,70,0.00,,,0.00,Wunderground v.1.15,2013-11-06 20:19:00,
2013-11-06 14:24:00,78.8,68.6,29.94,WSW,238,2.0,3.0,71,0.00,,,0.00,Wunderground v.1.15,2013-11-06 20:24:00,
2013-11-06 14:29:00,78.5,68.7,29.94,South,176,1.0,3.0,72,0.00,,,0.00,Wunderground v.1.15,2013-11-06 20:29:00,
2013-11-06 14:34:00,78.1,69.5,29.94,SE,135,1.0,5.0,75,0.00,,,0.00,Wunderground v.1.15,2013-11-06 20:34:00,
2013-11-06 14:39:00,76.9,69.5,29.94,West,273,2.0,3.0,78,0.00,,,0.00,Wunderground v.1.15,2013-11-06 20:39:00,
2013-11-06 14:44:00,75.7,69.5,29.95,SSE,156,2.0,3.0,81,0.00,,,0.01,Wunderground v.1.15,2013-11-06 20:44:00,
2013-11-06 14:49:00,75.0,69.5,29.95,SSE,156,1.0,1.0,83,0.00,,,0.01,Wunderground v.1.15,2013-11-06 20:49:00,
2013-11-06 14:54:00,74.4,69.2,29.95,SSE,165,1.0,3.0,84,0.00,,,0.01,Wunderground v.1.15,2013-11-06 20:54:00,
2013-11-06 14:59:00,74.0,69.5,29.95,SSE,166,1.0,1.0,86,0.00,,,0.01,Wunderground v.1.15,2013-11-06 20:59:00,
2013-11-06 15:04:00,73.9,69.8,29.95,SSE,159,0.0,1.0,87,0.00,,,0.01,Wunderground v.1.15,2013-11-06 21:04:00,
2013-11-06 15:09:00,73.9,70.1,29.95,SSE,159,1.0,2.0,88,0.00,,,0.01,Wunderground v.1.15,2013-11-06 21:09:00,
2013-11-06 15:14:00,73.9,70.1,29.95,SSE,159,1.0,2.0,88,0.00,,,0.01,Wunderground v.1.15,2013-11-06 21:14:00,
2013-11-06 15:19:00,73.8,70.0,29.95,SSE,157,1.0,1.0,88,0.00,,,0.01,Wunderground v.1.15,2013-11-06 21:19:00,
2013-11-06 15:23:00,73.7,69.9,29.95,SSE,162,1.0,1.0,88,0.00,,,0.01,Wunderground v.1.15,2013-11-06 21:23:00,
2013-11-06 15:29:00,73.8,70.0,29.95,South,182,1.0,1.0,88,0.00,,,0.01,Wunderground v.1.15,2013-11-06 21:29:00,
2013-11-06 15:33:00,74.0,70.2,29.95,South,169,1.0,11.0,88,0.00,,,0.01,Wunderground v.1.15,2013-11-06 21:33:00,
2013-11-06 15:38:00,74.2,70.7,29.95,SSE,168,1.0,1.0,89,0.00,,,0.01,Wunderground v.1.15,2013-11-06 21:38:00,
2013-11-06 15:43:00,74.2,70.4,29.95,SE,144,0.0,11.0,88,0.00,,,0.01,Wunderground v.1.15,2013-11-06 21:43:00,
2013-11-06 15:48:00,74.2,70.4,29.95,SE,144,1.0,11.0,88,0.00,,,0.01,Wunderground v.1.15,2013-11-06 21:48:00,
2013-11-06 15:54:00,74.0,70.2,29.95,South,171,1.0,11.0,88,0.00,,,0.01,Wunderground v.1.15,2013-11-06 21:54:00,
2013-11-06 15:58:00,73.8,70.0,29.95,South,182,1.0,11.0,88,0.00,,,0.01,Wunderground v.1.15,2013-11-06 21:58:00,
2013-11-06 16:03:00,73.7,69.9,29.95,South,182,1.0,11.0,88,0.00,,,0.01,Wunderground v.1.15,2013-11-06 22:03:00,
2013-11-06 16:09:00,73.5,69.7,29.95,South,182,1.0,1.0,88,0.00,,,0.01,Wunderground v.1.15,2013-11-06 22:09:00,
2013-11-06 16:14:00,73.3,69.5,29.95,SW,217,1.0,11.0,88,0.00,,,0.01,Wunderground v.1.15,2013-11-06 22:14:00,
2013-11-06 16:19:00,73.2,69.8,29.95,SW,217,1.0,11.0,89,0.00,,,0.01,Wunderground v.1.15,2013-11-06 22:19:00,
2013-11-06 16:23:00,73.1,69.3,29.95,SW,225,1.0,11.0,88,0.00,,,0.01,Wunderground v.1.15,2013-11-06 22:23:00,
2013-11-06 16:28:00,72.9,69.1,29.96,SW,225,1.0,11.0,88,0.00,,,0.01,Wunderground v.1.15,2013-11-06 22:28:00,
2013-11-06 16:33:00,72.6,69.2,29.96,South,172,2.0,11.0,89,0.00,,,0.01,Wunderground v.1.15,2013-11-06 22:33:00,
2013-11-06 16:38:00,72.1,68.7,29.96,South,185,3.0,11.0,89,0.23,,,0.03,Wunderground v.1.15,2013-11-06 22:38:00,
2013-11-06 16:43:00,71.7,68.6,29.96,South,188,2.0,11.0,90,0.32,,,0.05,Wunderground v.1.15,2013-11-06 22:43:00,
2013-11-06 16:48:00,71.5,68.7,29.96,SW,222,1.0,11.0,91,0.09,,,0.05,Wunderground v.1.15,2013-11-06 22:48:00,
2013-11-06 16:53:00,71.3,68.9,29.96,SW,225,1.0,11.0,92,0.05,,,0.05,Wunderground v.1.15,2013-11-06 22:53:00,
2013-11-06 16:58:00,71.1,68.7,29.96,SW,214,1.0,11.0,92,0.04,,,0.05,Wunderground v.1.15,2013-11-06 22:58:00,
2013-11-06 17:03:00,71.0,68.6,29.96,SE,146,1.0,11.0,92,0.00,,,0.05,Wunderground v.1.15,2013-11-06 23:03:00,
2013-11-06 17:08:00,70.8,68.4,29.96,South,184,1.0,11.0,92,0.00,,,0.05,Wunderground v.1.15,2013-11-06 23:08:00,
2013-11-06 17:13:00,70.8,68.7,29.97,SE,128,1.0,11.0,93,0.00,,,0.05,Wunderground v.1.15,2013-11-06 23:13:00,
2013-11-06 17:18:00,70.7,68.6,29.97,South,172,1.0,11.0,93,0.00,,,0.05,Wunderground v.1.15,2013-11-06 23:18:00,
2013-11-06 17:23:00,70.6,68.5,29.97,South,172,0.0,11.0,93,0.00,,,0.05,Wunderground v.1.15,2013-11-06 23:23:00,
2013-11-06 17:28:00,70.6,68.5,29.97,South,172,0.0,11.0,93,0.00,,,0.05,Wunderground v.1.15,2013-11-06 23:28:00,
2013-11-06 17:33:00,70.5,68.4,29.97,South,172,0.0,11.0,93,0.00,,,0.05,Wunderground v.1.15,2013-11-06 23:33:00,
2013-11-06 17:38:00,70.5,68.4,29.97,South,172,0.0,11.0,93,0.00,,,0.05,Wunderground v.1.15,2013-11-06 23:38:00,
2013-11-06 17:43:00,70.4,68.3,29.97,South,172,0.0,11.0,93,0.00,,,0.05,Wunderground v.1.15,2013-11-06 23:43:00,
2013-11-06 17:48:00,70.4,68.3,29.97,South,172,0.0,11.0,93,0.00,,,0.06,Wunderground v.1.15,2013-11-06 23:48:00,
2013-11-06 17:53:00,70.4,68.3,29.97,South,172,1.0,11.0,93,0.00,,,0.06,Wunderground v.1.15,2013-11-06 23:53:00,
2013-11-06 17:58:00,70.3,68.5,29.97,South,172,0.0,11.0,94,0.00,,,0.06,Wunderground v.1.15,2013-11-06 23:58:00,
2013-11-06 18:03:00,70.3,68.5,29.97,South,172,0.0,11.0,94,0.00,,,0.06,Wunderground v.1.15,2013-11-07 00:03:00,
2013-11-06 18:08:00,70.3,68.5,29.97,South,172,0.0,11.0,94,0.00,,,0.06,Wunderground v.1.15,2013-11-07 00:08:00,
2013-11-06 18:13:00,70.2,68.4,29.98,South,172,0.0,11.0,94,0.00,,,0.06,Wunderground v.1.15,2013-11-07 00:13:00,
2013-11-06 18:18:00,70.2,68.4,29.98,South,172,0.0,11.0,94,0.00,,,0.07,Wunderground v.1.15,2013-11-07 00:18:00,
2013-11-06 18:23:00,70.2,68.4,29.98,South,172,0.0,11.0,94,0.00,,,0.07,Wunderground v.1.15,2013-11-07 00:23:00,
2013-11-06 18:28:00,70.2,68.4,29.98,South,172,0.0,11.0,94,0.00,,,0.07,Wunderground v.1.15,2013-11-07 00:28:00,
2013-11-06 18:33:00,70.2,68.4,29.98,South,172,0.0,11.0,94,0.00,,,0.07,Wunderground v.1.15,2013-11-07 00:33:00,
2013-11-06 18:38:00,70.2,68.4,29.98,South,172,0.0,11.0,94,0.00,,,0.07,Wunderground v.1.15,2013-11-07 00:38:00,
2013-11-06 18:43:00,70.1,68.3,29.98,South,172,0.0,11.0,94,0.00,,,0.08,Wunderground v.1.15,2013-11-07 00:43:00,
2013-11-06 18:48:00,70.1,68.3,29.98,South,172,0.0,11.0,94,0.00,,,0.08,Wunderground v.1.15,2013-11-07 00:48:00,
2013-11-06 18:53:00,70.1,68.3,29.98,South,172,0.0,11.0,94,0.00,,,0.08,Wunderground v.1.15,2013-11-07 00:53:00,
2013-11-06 18:58:00,70.1,68.3,29.98,South,172,0.0,11.0,94,0.00,,,0.08,Wunderground v.1.15,2013-11-07 00:58:00,
2013-11-06 19:03:00,70.1,68.3,29.98,South,172,0.0,11.0,94,0.00,,,0.09,Wunderground v.1.15,2013-11-07 01:03:00,
2013-11-06 19:08:00,70.1,68.3,29.98,South,172,0.0,11.0,94,0.00,,,0.09,Wunderground v.1.15,2013-11-07 01:08:00,
2013-11-06 19:13:00,70.1,68.3,29.99,South,172,0.0,11.0,94,0.05,,,0.10,Wunderground v.1.15,2013-11-07 01:13:00,
2013-11-06 19:23:00,70.1,68.3,29.99,South,172,0.0,11.0,94,0.08,,,0.11,Wunderground v.1.15,2013-11-07 01:23:00,
2013-11-06 19:28:00,70.0,68.2,29.99,South,172,1.0,11.0,94,0.91,,,0.16,Wunderground v.1.15,2013-11-07 01:28:00,
2013-11-06 19:33:00,70.0,68.2,29.99,South,169,1.0,11.0,94,0.71,,,0.23,Wunderground v.1.15,2013-11-07 01:33:00,
2013-11-06 19:38:00,70.0,68.2,29.99,South,169,1.0,1.0,94,0.44,,,0.29,Wunderground v.1.15,2013-11-07 01:38:00,
2013-11-06 19:43:00,70.1,68.6,29.99,SSE,160,1.0,11.0,95,1.13,,,0.35,Wunderground v.1.15,2013-11-07 01:43:00,
2013-11-06 19:48:00,70.0,68.5,29.99,SSE,168,1.0,1.0,95,0.70,,,0.41,Wunderground v.1.15,2013-11-07 01:48:00,
2013-11-06 19:53:00,70.0,68.5,29.99,SSE,166,1.0,11.0,95,0.33,,,0.43,Wunderground v.1.15,2013-11-07 01:53:00,
2013-11-06 20:03:00,69.9,68.4,29.99,SSE,165,0.0,11.0,95,0.05,,,0.43,Wunderground v.1.15,2013-11-07 02:03:00,
2013-11-06 20:08:00,69.9,68.4,29.99,SSE,166,0.0,11.0,95,0.04,,,0.43,Wunderground v.1.15,2013-11-07 02:08:00,
2013-11-06 20:13:00,69.8,68.3,29.99,SSE,166,0.0,11.0,95,0.00,,,0.44,Wunderground v.1.15,2013-11-07 02:13:00,
2013-11-06 20:18:00,69.8,68.3,29.99,SSE,166,0.0,11.0,95,0.00,,,0.44,Wunderground v.1.15,2013-11-07 02:18:00,
2013-11-06 20:23:00,69.7,68.2,29.99,SSE,166,0.0,11.0,95,0.00,,,0.44,Wunderground v.1.15,2013-11-07 02:23:00,
2013-11-06 20:28:00,69.7,68.2,29.99,SSE,165,0.0,11.0,95,0.00,,,0.44,Wunderground v.1.15,2013-11-07 02:28:00,
2013-11-06 20:33:00,69.7,68.2,29.99,SSE,166,0.0,11.0,95,0.00,,,0.44,Wunderground v.1.15,2013-11-07 02:33:00,
2013-11-06 20:38:00,69.7,68.2,29.99,SSE,166,0.0,11.0,95,0.00,,,0.44,Wunderground v.1.15,2013-11-07 02:38:00,
2013-11-06 20:43:00,69.5,68.0,29.99,SSE,156,1.0,11.0,95,0.00,,,0.44,Wunderground v.1.15,2013-11-07 02:43:00,
2013-11-06 20:48:00,69.3,67.5,29.99,SSE,163,1.0,1.0,94,0.00,,,0.44,Wunderground v.1.15,2013-11-07 02:48:00,
2013-11-06 20:53:00,69.1,67.3,29.99,SSE,163,0.0,11.0,94,0.00,,,0.44,Wunderground v.1.15,2013-11-07 02:53:00,
2013-11-06 20:58:00,69.0,67.5,29.99,SSE,163,0.0,11.0,95,0.00,,,0.44,Wunderground v.1.15,2013-11-07 02:58:00,
2013-11-06 21:03:00,68.8,67.3,29.99,SSE,163,0.0,11.0,95,0.00,,,0.44,Wunderground v.1.15,2013-11-07 03:03:00,
2013-11-06 21:08:00,68.6,66.8,29.99,SSE,163,0.0,11.0,94,0.00,,,0.44,Wunderground v.1.15,2013-11-07 03:08:00,
2013-11-06 21:13:00,68.5,66.7,29.99,SSE,163,0.0,11.0,94,0.00,,,0.44,Wunderground v.1.15,2013-11-07 03:13:00,
2013-11-06 21:18:00,68.4,66.6,29.99,SSE,163,0.0,11.0,94,0.00,,,0.44,Wunderground v.1.15,2013-11-07 03:18:00,
2013-11-06 21:23:00,68.4,66.9,29.99,SSE,163,0.0,11.0,95,0.00,,,0.44,Wunderground v.1.15,2013-11-07 03:23:00,
2013-11-06 21:28:00,68.3,66.8,29.99,SSE,163,0.0,11.0,95,0.00,,,0.44,Wunderground v.1.15,2013-11-07 03:28:00,
2013-11-06 21:33:00,68.4,66.9,29.99,SSE,163,0.0,11.0,95,0.00,,,0.44,Wunderground v.1.15,2013-11-07 03:33:00,
2013-11-06 21:38:00,68.3,66.8,29.99,SSE,163,0.0,11.0,95,0.00,,,0.44,Wunderground v.1.15,2013-11-07 03:38:00,
2013-11-06 21:43:00,68.3,66.8,29.98,SSE,163,0.0,11.0,95,0.00,,,0.44,Wunderground v.1.15,2013-11-07 03:43:00,
2013-11-06 21:48:00,68.3,66.8,29.98,SSE,163,1.0,1.0,95,0.00,,,0.44,Wunderground v.1.15,2013-11-07 03:48:00,
2013-11-06 21:53:00,68.2,66.7,29.98,SSE,163,0.0,11.0,95,0.00,,,0.44,Wunderground v.1.15,2013-11-07 03:53:00,
2013-11-06 21:58:00,68.2,66.7,29.98,SSE,163,0.0,11.0,95,0.00,,,0.44,Wunderground v.1.15,2013-11-07 03:58:00,
2013-11-06 22:03:00,68.1,66.6,29.98,SSE,163,0.0,11.0,95,0.00,,,0.44,Wunderground v.1.15,2013-11-07 04:03:00,
2013-11-06 22:08:00,68.1,66.6,29.98,SSE,163,0.0,11.0,95,0.00,,,0.44,Wunderground v.1.15,2013-11-07 04:08:00,
2013-11-06 22:13:00,68.1,66.6,30.00,WSW,246,0.0,11.0,95,0.00,,,0.44,Wunderground v.1.15,2013-11-07 04:13:00,
2013-11-06 22:18:00,67.6,66.1,30.00,NNE,30,2.0,11.0,95,0.00,,,0.44,Wunderground v.1.15,2013-11-07 04:18:00,
2013-11-06 22:23:00,67.0,65.2,30.00,NE,51,4.0,11.0,94,0.00,,,0.44,Wunderground v.1.15,2013-11-07 04:23:00,
2013-11-06 22:28:00,66.5,64.7,30.00,NE,34,5.0,5.0,94,0.00,,,0.44,Wunderground v.1.15,2013-11-07 04:28:00,
2013-11-06 22:33:00,66.3,64.5,30.00,NNE,33,4.0,11.0,94,0.00,,,0.44,Wunderground v.1.15,2013-11-07 04:33:00,
2013-11-06 22:38:00,66.1,64.3,30.00,NE,38,3.0,11.0,94,0.00,,,0.45,Wunderground v.1.15,2013-11-07 04:38:00,
2013-11-06 22:43:00,65.8,64.0,30.00,NNE,33,3.0,11.0,94,0.00,,,0.45,Wunderground v.1.15,2013-11-07 04:43:00,
2013-11-06 22:48:00,65.6,63.8,30.00,NNE,30,3.0,11.0,94,0.05,,,0.46,Wunderground v.1.15,2013-11-07 04:48:00,
2013-11-06 22:53:00,65.5,63.7,30.00,ENE,63,2.0,11.0,94,0.05,,,0.46,Wunderground v.1.15,2013-11-07 04:53:00,
2013-11-06 22:58:00,65.4,63.6,30.00,NE,34,3.0,3.0,94,0.06,,,0.47,Wunderground v.1.15,2013-11-07 04:58:00,
2013-11-06 23:03:00,65.4,63.6,30.00,NNE,32,3.0,4.0,94,0.06,,,0.47,Wunderground v.1.15,2013-11-07 05:03:00,
2013-11-06 23:08:00,65.3,63.5,30.00,NNE,31,4.0,4.0,94,0.04,,,0.47,Wunderground v.1.15,2013-11-07 05:08:00,
2013-11-06 23:13:00,65.0,63.2,29.99,NNE,26,4.0,11.0,94,0.00,,,0.47,Wunderground v.1.15,2013-11-07 05:13:00,
2013-11-06 23:23:00,64.8,63.0,29.99,NNE,24,3.0,11.0,94,0.00,,,0.47,Wunderground v.1.15,2013-11-07 05:23:00,
2013-11-06 23:28:00,64.7,62.9,29.99,NE,51,2.0,11.0,94,0.00,,,0.47,Wunderground v.1.15,2013-11-07 05:28:00,
2013-11-06 23:33:00,64.7,62.9,29.99,NE,35,2.0,11.0,94,0.00,,,0.47,Wunderground v.1.15,2013-11-07 05:33:00,
2013-11-06 23:38:00,64.6,62.8,29.99,NE,35,1.0,11.0,94,0.00,,,0.47,Wunderground v.1.15,2013-11-07 05:38:00,
2013-11-06 23:43:00,64.6,62.8,30.00,NNE,18,1.0,11.0,94,0.00,,,0.47,Wunderground v.1.15,2013-11-07 05:43:00,
2013-11-06 23:48:00,64.6,62.8,30.00,NNE,24,1.0,11.0,94,0.00,,,0.47,Wunderground v.1.15,2013-11-07 05:48:00,
2013-11-06 23:53:00,64.6,63.1,30.00,NNE,24,1.0,11.0,95,0.00,,,0.47,Wunderground v.1.15,2013-11-07 05:53:00,
2013-11-06 23:58:00,64.6,63.1,29.99,North,9,1.0,11.0,95,0.00,,,0.47,Wunderground v.1.15,2013-11-07 05:58:00,